| time (UTC) | temp C | wind direction | speed KPH | gust KPH | rain 1hr cm | rain 24hr cm | rain mn cm | humidity % | barometer mb |
| 20260509033056 | 18 | 119 | 0.0 | 4.8 | 0.00 | 0.00 | 0.00 | 34 | 1007.6 |
| 20260509031602 | 19 | 48 | 0.0 | 4.8 | 0.00 | 0.00 | 0.00 | 32 | 1007.3 |
| 20260509030055 | 20 | 77 | 0.0 | 0.0 | 0.00 | 0.00 | 0.00 | 31 | 1007.2 |
| 20260509024555 | 20 | 53 | 0.0 | 0.0 | 0.00 | 0.00 | 0.00 | 31 | 1006.9 |
| 20260509023100 | 21 | 41 | 0.0 | 0.0 | 0.00 | 0.00 | 0.00 | 30 | 1006.7 |
| 20260509021554 | 22 | 52 | 0.0 | 4.8 | 0.00 | 0.00 | 0.00 | 29 | 1006.3 |
| 20260509020056 | 22 | 55 | 0.0 | 1.6 | 0.00 | 0.00 | 0.00 | 29 | 1006.2 |
| 20260509014552 | 23 | 49 | 0.0 | 4.8 | 0.00 | 0.00 | 0.00 | 28 | 1006.0 |
| 20260509013113 | 24 | 45 | 0.0 | 4.8 | 0.00 | 0.00 | 0.00 | 26 | 1005.9 |
| 20260509011551 | 25 | 8 | 4.8 | 16.1 | 0.00 | 0.00 | 0.00 | 25 | 1005.8 |
| 20260509010050 | 25 | 39 | 4.8 | 11.3 | 0.00 | 0.00 | 0.00 | 24 | 1005.6 |
| 20260509004549 | 26 | 47 | 6.4 | 12.9 | 0.00 | 0.00 | 0.00 | 23 | 1005.5 |
| 20260509003050 | 26 | 28 | 3.2 | 11.3 | 0.00 | 0.00 | 0.00 | 23 | 1005.5 |
| 20260509001549 | 26 | 37 | 0.0 | 17.7 | 0.00 | 0.00 | 0.00 | 23 | 1005.5 |
| 20260509000050 | 27 | 33 | 1.6 | 16.1 | 0.00 | 0.00 | 0.00 | 22 | 1005.5 |
| 20260508234547 | 27 | 27 | 6.4 | 20.9 | 0.00 | 0.00 | 0.00 | 23 | 1005.4 |
| 20260508233047 | 27 | 23 | 8.0 | 19.3 | 0.00 | 0.00 | 0.00 | 22 | 1005.4 |
| 20260508231552 | 27 | 358 | 6.4 | 20.9 | 0.00 | 0.00 | 0.00 | 22 | 1005.5 |
| 20260508230056 | 27 | 338 | 3.2 | 12.9 | 0.00 | 0.00 | 0.00 | 22 | 1005.4 |
| 20260508224600 | 27 | 23 | 4.8 | 17.7 | 0.00 | 0.00 | 0.00 | 21 | 1005.4 |
| 20260508223045 | 27 | 335 | 1.6 | 17.7 | 0.00 | 0.00 | 0.00 | 21 | 1005.2 |
| 20260508221555 | 28 | 294 | 3.2 | 27.4 | 0.00 | 0.00 | 0.00 | 21 | 1005.3 |
| 20260508220043 | 28 | 274 | 3.2 | 19.3 | 0.00 | 0.00 | 0.00 | 21 | 1005.3 |
| 20260508214543 | 28 | 39 | 8.0 | 19.3 | 0.00 | 0.00 | 0.00 | 21 | 1005.2 |
| 20260508213052 | 28 | 316 | 9.7 | 20.9 | 0.00 | 0.00 | 0.00 | 20 | 1005.5 |
| 20260508211531 | 28 | 344 | 6.4 | 17.7 | 0.00 | 0.00 | 0.00 | 20 | 1005.6 |
| 20260508210031 | 28 | 36 | 4.8 | 19.3 | 0.00 | 0.00 | 0.00 | 19 | 1005.7 |
| 20260508204528 | 28 | 77 | 4.8 | 24.1 | 0.00 | 0.00 | 0.00 | 20 | 1005.9 |
| 20260508203026 | 28 | 310 | 11.3 | 24.1 | 0.00 | 0.00 | 0.00 | 19 | 1005.9 |
| 20260508201530 | 28 | 1 | 6.4 | 19.3 | 0.00 | 0.00 | 0.00 | 20 | 1005.8 |
| 20260508200026 | 28 | 318 | 6.4 | 22.5 | 0.00 | 0.00 | 0.00 | 20 | 1005.9 |
| 20260508194520 | 28 | 1 | 8.0 | 17.7 | 0.00 | 0.00 | 0.00 | 20 | 1006.1 |
| 20260508193021 | 27 | 316 | 6.4 | 17.7 | 0.00 | 0.00 | 0.00 | 23 | 1006.2 |
| 20260508191517 | 27 | 345 | 4.8 | 14.5 | 0.00 | 0.00 | 0.00 | 24 | 1006.3 |
| 20260508190026 | 27 | 12 | 8.0 | 16.1 | 0.00 | 0.00 | 0.00 | 23 | 1006.6 |
| 20260508184511 | 27 | 350 | 3.2 | 14.5 | 0.00 | 0.00 | 0.00 | 24 | 1006.6 |
| 20260508183009 | 27 | 15 | 3.2 | 11.3 | 0.00 | 0.00 | 0.00 | 23 | 1006.7 |
| 20260508181518 | 27 | 318 | 4.8 | 14.5 | 0.00 | 0.00 | 0.00 | 23 | 1006.8 |
| 20260508180006 | 26 | 285 | 1.6 | 19.3 | 0.00 | 0.00 | 0.00 | 24 | 1007.0 |
| 20260508174501 | 26 | 274 | 1.6 | 12.9 | 0.00 | 0.00 | 0.00 | 26 | 1007.1 |
| 20260508173118 | 25 | 235 | 4.8 | 17.7 | 0.00 | 0.00 | 0.00 | 27 | 1007.3 |
| 20260508171620 | 25 | 272 | 3.2 | 9.7 | 0.00 | 0.00 | 0.00 | 29 | 1007.6 |
| 20260508170052 | 24 | 263 | 8.0 | 12.9 | 0.00 | 0.00 | 0.00 | 29 | 1007.8 |
| 20260508164551 | 23 | 240 | 8.0 | 12.9 | 0.00 | 0.00 | 0.00 | 31 | 1007.9 |
| 20260508163044 | 22 | 207 | 6.4 | 12.9 | 0.00 | 0.00 | 0.00 | 34 | 1008.1 |
| 20260508161545 | 22 | 266 | 4.8 | 14.5 | 0.00 | 0.00 | 0.00 | 37 | 1008.2 |
| 20260508160039 | 21 | 272 | 8.0 | 16.1 | 0.00 | 0.00 | 0.00 | 41 | 1008.5 |
| 20260508154536 | 21 | 204 | 6.4 | 16.1 | 0.00 | 0.00 | 0.00 | 43 | 1008.5 |
| 20260508153039 | 20 | 239 | 8.0 | 16.1 | 0.00 | 0.00 | 0.00 | 44 | 1008.6 |
| 20260508151541 | 20 | 203 | 9.7 | 19.3 | 0.00 | 0.00 | 0.00 | 45 | 1008.9 |
| 20260508150030 | 20 | 210 | 8.0 | 16.1 | 0.00 | 0.00 | 0.00 | 49 | 1008.7 |
| 20260508144526 | 18 | 206 | 9.7 | 20.9 | 0.00 | 0.00 | 0.00 | 54 | 1008.8 |
| 20260508143024 | 18 | 232 | 9.7 | 20.9 | 0.00 | 0.00 | 0.00 | 56 | 1009.1 |
| 20260508141522 | 17 | 202 | 9.7 | 22.5 | 0.00 | 0.00 | 0.00 | 56 | 1009.0 |
| 20260508140018 | 17 | 193 | 8.0 | 12.9 | 0.00 | 0.00 | 0.00 | 59 | 1009.3 |
| 20260508134517 | 15 | 215 | 3.2 | 11.3 | 0.00 | 0.00 | 0.00 | 63 | 1010.0 |
| 20260508133014 | 15 | 189 | 6.4 | 14.5 | 0.00 | 0.00 | 0.00 | 64 | 1009.5 |
| 20260508131514 | 14 | 205 | 6.4 | 16.1 | 0.00 | 0.00 | 0.00 | 67 | 1009.2 |
| 20260508130012 | 12 | 209 | 3.2 | 8.0 | 0.00 | 0.00 | 0.00 | 71 | 1009.4 |
| 20260508124519 | 11 | 176 | 0.0 | 8.0 | 0.00 | 0.00 | 0.00 | 73 | 1009.4 |
| 20260508123012 | 11 | 188 | 1.6 | 4.8 | 0.00 | 0.00 | 0.00 | 75 | 1009.0 |
| 20260508121509 | 10 | 203 | 0.0 | 8.0 | 0.00 | 0.00 | 0.00 | 76 | 1009.0 |
| 20260508120009 | 10 | 174 | 1.6 | 3.2 | 0.00 | 0.00 | 0.00 | 78 | 1008.9 |
| 20260508114505 | 10 | 183 | 0.0 | 0.0 | 0.00 | 0.00 | 0.00 | 75 | 1008.9 |
| 20260508113002 | 10 | 198 | 0.0 | 3.2 | 0.00 | 0.00 | 0.00 | 73 | 1009.1 |
| 20260508111603 | 11 | 207 | 3.2 | 9.7 | 0.00 | 0.00 | 0.00 | 72 | 1009.1 |
| 20260508104558 | 11 | 210 | 3.2 | 12.9 | 0.00 | 0.00 | 0.00 | 71 | 1009.2 |
| 20260508103051 | 12 | 183 | 4.8 | 9.7 | 0.00 | 0.00 | 0.00 | 70 | 1009.4 |
| 20260508101550 | 12 | 176 | 4.8 | 12.9 | 0.00 | 0.00 | 0.00 | 68 | 1009.5 |
| 20260508100045 | 12 | 186 | 3.2 | 11.3 | 0.00 | 0.00 | 0.00 | 67 | 1009.4 |
| 20260508094543 | 12 | 193 | 4.8 | 12.9 | 0.00 | 0.00 | 0.00 | 66 | 1009.6 |
| 20260508093041 | 12 | 172 | 6.4 | 14.5 | 0.00 | 0.00 | 0.00 | 66 | 1009.8 |
| 20260508091605 | 12 | 181 | 6.4 | 14.5 | 0.00 | 0.00 | 0.00 | 65 | 1010.0 |
| 20260508090039 | 12 | 193 | 6.4 | 11.3 | 0.00 | 0.00 | 0.00 | 64 | 1010.2 |
| 20260508084537 | 13 | 195 | 8.0 | 16.1 | 0.00 | 0.00 | 0.00 | 62 | 1010.1 |
| 20260508083038 | 13 | 184 | 8.0 | 17.7 | 0.00 | 0.00 | 0.00 | 60 | 1010.1 |
| 20260508081532 | 13 | 180 | 9.7 | 19.3 | 0.00 | 0.00 | 0.00 | 59 | 1010.0 |
| 20260508080038 | 13 | 193 | 3.2 | 8.0 | 0.00 | 0.00 | 0.00 | 58 | 1010.3 |
| 20260508074529 | 13 | 190 | 3.2 | 9.7 | 0.00 | 0.00 | 0.00 | 56 | 1010.4 |
| 20260508073034 | 13 | 193 | 3.2 | 9.7 | 0.00 | 0.00 | 0.00 | 54 | 1010.4 |
| 20260508071530 | 13 | 175 | 3.2 | 9.7 | 0.00 | 0.00 | 0.00 | 53 | 1010.5 |
| 20260508070023 | 12 | 200 | 1.6 | 4.8 | 0.00 | 0.00 | 0.00 | 53 | 1010.7 |
| 20260508064530 | 12 | 167 | 0.0 | 3.2 | 0.00 | 0.00 | 0.00 | 52 | 1010.8 |
| 20260508063018 | 13 | 180 | 0.0 | 1.6 | 0.00 | 0.00 | 0.00 | 50 | 1010.8 |
| 20260508061515 | 13 | 162 | 0.0 | 4.8 | 0.00 | 0.00 | 0.00 | 48 | 1011.0 |
| 20260508060012 | 13 | 176 | 1.6 | 4.8 | 0.00 | 0.00 | 0.00 | 47 | 1011.1 |
| 20260508054508 | 15 | 136 | 1.6 | 6.4 | 0.00 | 0.00 | 0.00 | 45 | 1011.2 |
| 20260508053006 | 15 | 134 | 1.6 | 9.7 | 0.00 | 0.00 | 0.00 | 43 | 1011.4 |
| 20260508051504 | 16 | 165 | 1.6 | 8.0 | 0.00 | 0.00 | 0.00 | 42 | 1011.3 |
| 20260508050058 | 16 | 144 | 4.8 | 11.3 | 0.00 | 0.00 | 0.00 | 42 | 1011.6 |
| 20260508044557 | 16 | 127 | 3.2 | 9.7 | 0.00 | 0.00 | 0.00 | 41 | 1011.7 |
| 20260508043057 | 16 | 139 | 1.6 | 8.0 | 0.00 | 0.00 | 0.00 | 40 | 1011.9 |
| 20260508041557 | 16 | 156 | 0.0 | 4.8 | 0.00 | 0.00 | 0.00 | 39 | 1011.9 |
| 20260508040056 | 16 | 148 | 0.0 | 4.8 | 0.00 | 0.00 | 0.00 | 38 | 1011.8 |
| 20260508034555 | 16 | 148 | 0.0 | 4.8 | 0.00 | 0.00 | 0.00 | 37 | 1011.9 |